Theta_e
351 345 341 341 334 330 329 332 339 336 337 336 335 334 335 332 330 332 329 327 328 325
353 351 342 339 342 335 338 333 337 336 336 336 334 334 335 330 331 331 331 330 331 326
347 339 341 340 341 340 342 341 337 336 335 334 334 334 335 332 331 331 329 329 330 328
344 335 334 339 339 338 342 338 336 334 334 333 334 334 335 332 330 328 328 330 328 325
336 335 334 331 340 341 339 337 335 333 333 333 333 334 333 330 327 327 326 327 327 324
337 333 336 333 341 341 340 336 335 334 333 332 332 333 332 329 328 327 326 327 325 324
336 335 338 331 335 338 337 335 335 334 333 333 332 332 331 330 329 328 327 326 325 324
335 335 336 335 330 332 338 335 335 334 334 334 333 330 332 331 330 329 327 325 323 322
334 334 333 334 331 331 333 337 335 333 333 333 330 309 314 326 329 327 324 323 322 321
333 333 332 333 333 335 332 334 336 335 333 333 333 305 306 308 324 323 323 322 321 318
331 331 333 333 334 336 335 335 335 334 334 334 328 303 303 305 319 321 322 321 320 319
329 330 331 331 334 334 333 334 334 334 334 333 320 301 301 307 319 319 319 318 318 317
330 331 330 333 334 336 335 334 333 332 333 323 326 300 302 305 315 316 314 317 316 306
324 331 332 333 335 334 333 332 330 328 327 323 322 311 300 298 310 311 311 311 311 313
Wind_Speed
24 16 14 16 14 13 13 13 14 13 11 10 9 8 6 6 4 5 4 3 4 4
20 16 16 17 15 13 12 13 15 14 13 11 10 9 8 5 6 5 3 4 1 4
20 17 11 12 15 15 13 13 16 15 13 12 11 10 9 7 6 5 4 0 0 4
20 19 16 10 12 14 14 15 17 16 15 14 12 11 8 6 7 6 4 2 2 4
17 18 17 25 21 18 17 17 18 17 16 15 13 11 10 9 7 6 4 2 3 5
20 17 16 4 14 16 17 18 18 17 16 15 14 12 11 8 7 5 4 3 5 6
19 18 18 18 15 12 16 16 16 16 16 14 13 13 11 9 7 6 5 4 5 7
18 19 18 19 17 20 17 17 16 16 15 14 13 11 12 9 8 6 5 5 6 7
18 19 21 21 22 25 21 16 17 16 16 15 11 12 8 8 7 5 5 6 7 8
17 19 20 20 20 17 21 22 18 15 16 15 11 11 9 7 5 5 5 7 8 9
14 17 19 18 19 17 16 17 16 16 16 14 9 12 10 10 5 6 7 7 8 10
12 14 16 19 18 17 17 16 16 15 15 14 12 12 11 8 6 7 6 7 9 9
7 10 13 17 17 16 16 15 13 14 13 10 13 10 10 6 5 6 6 8 9 9
11 4 9 12 11 13 13 14 12 12 10 10 5 11 9 3 5 6 7 7 7 9
Wind_Direction
194 190 183 184 179 185 187 183 165 186 182 177 175 167 155 158 143 126 138 97 28 336
195 186 196 183 180 181 186 178 172 182 179 177 180 175 169 148 163 161 163 123 124 295
183 175 193 182 188 181 182 174 175 178 176 178 182 183 197 167 158 163 166 229 349 312
187 175 160 184 207 176 173 174 177 176 176 182 183 186 196 191 161 170 168 158 282 325
184 182 201 161 191 182 175 179 180 178 181 184 184 182 187 192 168 184 196 220 289 304
195 185 173 186 185 179 176 181 181 182 183 186 183 183 189 192 185 193 211 255 283 298
197 179 177 158 160 203 181 183 186 185 185 188 185 186 182 188 189 206 215 237 276 295
197 187 179 187 157 178 190 185 191 187 189 187 185 191 184 183 197 205 230 259 279 279
203 196 188 171 183 175 167 180 191 190 187 188 195 125 134 179 193 209 248 280 291 291
201 204 194 189 191 187 170 165 180 187 188 188 184 131 141 123 193 230 261 275 282 285
207 206 197 193 195 183 170 163 170 182 187 181 147 143 155 135 217 243 252 273 280 279
213 202 194 187 194 179 176 170 174 180 179 178 144 166 155 162 227 249 267 277 273 280
222 209 185 177 180 177 172 171 172 169 171 163 154 159 144 193 257 270 278 270 273 218
356 185 179 168 160 163 163 151 159 159 159 160 154 140 136 159 287 288 285 287 287 280